N5GMJ Weather Reports


Display with metric or nautical units.
time (UTC)temp
F
wind
direction
speed
MPH
gust
MPH
rain 1hr
in
rain 24hr
in
rain mn
in
humidity
%
barometer
mb
20260506062318 58 335 3.0 4.0 0.00 0.00 0.00 82 1011.5
20260506061813 58 91 2.0 3.0 0.00 0.00 0.00 82 1011.6
20260506061310 58 84 1.0 3.0 0.00 0.00 0.00 81 1011.6
20260506060809 58 317 0.0 2.0 0.00 0.00 0.00 82 1011.7
20260506060307 58 308 1.0 7.0 0.00 0.00 0.00 82 1011.5
20260506051238 60 61 2.0 3.0 0.00 0.00 0.00 81 1011.6
20260506050736 60 307 5.0 7.0 0.00 0.00 0.00 81 1011.6
20260506050233 60 332 2.0 8.0 0.00 0.00 0.00 81 1011.6
20260506044724 60 327 7.0 10.0 0.00 0.00 0.00 80 1011.7
20260506044221 60 278 4.0 8.0 0.00 0.00 0.00 80 1011.5
20260506043718 60 330 2.0 6.0 0.00 0.00 0.00 80 1011.5
20260506043216 60 303 5.0 8.0 0.00 0.00 0.00 80 1011.4
20260506042714 60 330 3.0 7.0 0.00 0.00 0.00 80 1011.4
20260506042212 61 356 2.0 10.0 0.00 0.00 0.00 79 1011.4
20260506041711 61 329 5.0 8.0 0.00 0.00 0.00 79 1011.4
20260506041207 61 308 4.0 4.0 0.00 0.00 0.00 79 1011.4
20260506040705 61 324 6.0 8.0 0.00 0.00 0.00 79 1011.3
20260506040201 61 321 3.0 9.0 0.00 0.00 0.00 78 1011.1
20260506035658 61 329 5.0 9.0 0.00 0.00 0.00 78 1011.6
20260506035155 62 330 4.0 13.0 0.00 0.00 0.00 78 1011.4
20260506034652 62 303 5.0 13.0 0.00 0.00 0.00 77 1011.4
20260506034149 62 307 6.0 8.0 0.00 0.00 0.00 78 1011.4
20260506033646 62 317 6.0 9.0 0.00 0.00 0.00 77 1011.0
20260506033143 62 332 4.0 10.0 0.00 0.00 0.00 77 1011.1
20260506032640 63 310 2.0 7.0 0.00 0.00 0.00 77 1010.8
20260506032137 63 328 6.0 8.0 0.00 0.00 0.00 77 1010.7
20260506031634 63 313 4.0 7.0 0.00 0.00 0.00 77 1010.6
20260506031131 63 301 4.0 7.0 0.00 0.00 0.00 77 1010.4
20260506030630 63 311 5.0 8.0 0.00 0.00 0.00 77 1010.4
20260506030127 64 307 7.0 11.0 0.00 0.00 0.00 77 1010.4
20260506025623 64 278 2.0 6.0 0.00 0.00 0.00 77 1009.9
20260506025119 64 304 4.0 6.0 0.00 0.00 0.00 77 1009.9
20260506024617 64 0 5.0 9.0 0.00 0.00 0.00 77 1009.9
20260506024113 64 355 2.0 7.0 0.00 0.00 0.00 76 1009.9
20260506023609 64 314 5.0 9.0 0.00 0.00 0.00 76 1009.9
20260506023107 65 327 4.0 6.0 0.00 0.00 0.00 76 1009.6
20260506022604 65 329 3.0 6.0 0.00 0.00 0.00 76 1009.6
20260506022101 65 73 5.0 7.0 0.00 0.00 0.00 75 1009.4
20260506021559 65 7 4.0 6.0 0.00 0.00 0.00 76 1009.6
20260506021056 65 306 2.0 4.0 0.00 0.00 0.00 77 1009.6
20260506020553 65 306 2.0 6.0 0.00 0.00 0.00 77 1009.1
20260506020050 65 307 1.0 1.0 0.00 0.00 0.00 77 1009.2
20260506015548 65 296 1.0 3.0 0.00 0.00 0.00 76 1009.2
20260506015045 66 11 0.0 3.0 0.00 0.00 0.00 75 1009.2
20260506014542 66 311 3.0 6.0 0.00 0.00 0.00 75 1009.1
20260506014038 66 294 3.0 6.0 0.00 0.00 0.00 75 1008.6
20260506013536 66 71 2.0 6.0 0.00 0.00 0.00 75 1008.6
20260506013032 66 59 2.0 6.0 0.00 0.00 0.00 73 1008.3
20260506012529 66 355 3.0 4.0 0.00 0.00 0.00 73 1008.1
20260506012026 66 349 4.0 6.0 0.00 0.00 0.00 73 1008.2
20260506011524 67 307 6.0 8.0 0.00 0.00 0.00 72 1008.0
20260506011019 67 319 5.0 7.0 0.00 0.00 0.00 73 1008.0
20260506010519 67 327 5.0 6.0 0.00 0.00 0.00 73 1007.5
20260506010015 67 323 6.0 8.0 0.00 0.00 0.00 72 1007.7
20260506005512 68 266 5.0 8.0 0.00 0.00 0.00 72 1007.5
20260506005008 68 305 6.0 9.0 0.00 0.00 0.00 72 1007.2
20260506004506 69 321 7.0 14.0 0.00 0.00 0.00 71 1007.0
20260506004002 70 301 6.0 10.0 0.00 0.00 0.00 71 1007.3
20260506003458 70 294 5.0 9.0 0.00 0.00 0.00 71 1007.6
20260506002954 70 312 5.0 10.0 0.00 0.00 0.00 70 1007.2
20260506002451 71 51 4.0 7.0 0.00 0.00 0.00 70 1007.2
20260506001946 71 324 2.0 4.0 0.00 0.00 0.00 70 1006.5
20260506001443 71 309 6.0 9.0 0.00 0.00 0.00 70 1006.7
20260506000940 71 333 3.0 8.0 0.00 0.00 0.00 71 1006.8
20260506000438 71 307 3.0 7.0 0.00 0.00 0.00 69 1007.1
20260505235935 72 313 8.0 10.0 0.00 0.00 0.00 69 1006.8
20260505235433 72 347 7.0 10.0 0.00 0.00 0.00 68 1006.8
20260505234929 72 26 4.0 7.0 0.00 0.00 0.00 69 1006.8
20260505234427 73 300 4.0 7.0 0.00 0.00 0.00 68 1007.0
20260505233923 73 317 9.0 11.0 0.00 0.00 0.00 67 1007.1
20260505233421 73 338 5.0 11.0 0.00 0.00 0.00 66 1007.0
20260505232918 74 329 3.0 8.0 0.00 0.00 0.00 66 1007.0
20260505232416 74 327 6.0 10.0 0.00 0.00 0.00 65 1006.5
20260505231912 74 335 5.0 7.0 0.00 0.00 0.00 65 1006.7
20260505231410 74 327 4.0 7.0 0.00 0.00 0.00 65 1006.6
20260505230908 75 289 6.0 8.0 0.00 0.00 0.00 64 1006.6
20260505230406 75 333 3.0 8.0 0.00 0.00 0.00 64 1006.7
20260505225902 75 339 5.0 9.0 0.00 0.00 0.00 64 1006.5
20260505225359 76 1 4.0 10.0 0.00 0.00 0.00 63 1006.5
20260505224854 77 1 4.0 13.0 0.00 0.00 0.00 62 1006.4
20260505224352 77 335 7.0 13.0 0.00 0.00 0.00 62 1006.6
20260505223849 78 330 8.0 13.0 0.00 0.00 0.00 61 1006.5
20260505223346 78 296 6.0 9.0 0.00 0.00 0.00 62 1006.3
20260505222842 78 356 6.0 13.0 0.00 0.00 0.00 60 1006.1
20260505222338 79 324 6.0 9.0 0.00 0.00 0.00 61 1006.1
20260505221835 78 335 7.0 10.0 0.00 0.00 0.00 62 1006.2
20260505221332 79 321 7.0 9.0 0.00 0.00 0.00 63 1006.1
20260505220829 79 332 6.0 10.0 0.00 0.00 0.00 63 1006.0
20260505220326 80 345 8.0 10.0 0.00 0.00 0.00 61 1005.9
20260505215824 80 299 6.0 11.0 0.00 0.00 0.00 62 1005.9
20260505215322 81 327 10.0 11.0 0.00 0.00 0.00 59 1005.8
20260505214819 81 318 6.0 13.0 0.00 0.00 0.00 57 1006.0
20260505214317 82 304 8.0 14.0 0.00 0.00 0.00 56 1005.7
20260505213813 82 333 6.0 10.0 0.00 0.00 0.00 55 1005.6
20260505213312 83 284 3.0 8.0 0.00 0.00 0.00 51 1005.8
20260505212807 82 303 4.0 8.0 0.00 0.00 0.00 49 1006.0
20260505212306 82 309 5.0 13.0 0.00 0.00 0.00 49 1005.9
20260505211800 83 309 5.0 8.0 0.00 0.00 0.00 49 1005.9
20260505211259 83 317 4.0 6.0 0.00 0.00 0.00 50 1005.7
20260505210754 83 308 5.0 10.0 0.00 0.00 0.00 49 1005.8
20260505210252 84 0 2.0 8.0 0.00 0.00 0.00 46 1005.9
20260505205749 84 291 3.0 10.0 0.00 0.00 0.00 45 1005.9
20260505205247 85 318 7.0 14.0 0.00 0.00 0.00 46 1005.9
20260505204743 85 307 5.0 13.0 0.00 0.00 0.00 45 1005.7
20260505204242 85 308 10.0 17.0 0.00 0.00 0.00 45 1005.7
20260505203738 86 323 6.0 9.0 0.00 0.00 0.00 47 1006.0
20260505203235 88 313 9.0 11.0 0.00 0.00 0.00 43 1005.8
20260505202731 90 311 6.0 8.0 0.00 0.00 0.00 47 1005.8
20260505202227 90 256 3.0 6.0 0.00 0.00 0.00 45 1005.5
20260505201724 88 241 3.0 8.0 0.00 0.00 0.00 47 1005.9
20260505201222 90 236 1.0 3.0 0.00 0.00 0.00 48 1005.7
20260505200719 89 247 4.0 7.0 0.00 0.00 0.00 46 1005.8
20260505200216 89 253 7.0 10.0 0.00 0.00 0.00 49 1005.9
20260505195712 88 242 2.0 7.0 0.00 0.00 0.00 56 1006.0
20260505195209 88 297 4.0 7.0 0.00 0.00 0.00 53 1006.0
20260505194707 87 285 7.0 10.0 0.00 0.00 0.00 52 1006.0
20260505194203 87 256 3.0 11.0 0.00 0.00 0.00 54 1006.1
20260505193659 87 299 3.0 6.0 0.00 0.00 0.00 57 1006.0
20260505193156 87 251 2.0 7.0 0.00 0.00 0.00 56 1005.9
20260505192655 86 273 3.0 8.0 0.00 0.00 0.00 57 1006.2
20260505192152 86 297 3.0 11.0 0.00 0.00 0.00 57 1006.2
20260505191650 86 303 5.0 9.0 0.00 0.00 0.00 56 1006.2
20260505191148 86 212 4.0 11.0 0.00 0.00 0.00 55 1006.1
20260505190644 87 245 3.0 7.0 0.00 0.00 0.00 57 1005.9
20260505190144 86 248 4.0 6.0 0.00 0.00 0.00 58 1005.9
20260505185641 86 191 6.0 8.0 0.00 0.00 0.00 58 1006.1
20260505185137 87 151 1.0 7.0 0.00 0.00 0.00 58 1006.0
20260505184633 87 230 2.0 6.0 0.00 0.00 0.00 58 1006.1
20260505184131 86 63 0.0 3.0 0.00 0.00 0.00 58 1005.8
20260505183627 86 209 3.0 10.0 0.00 0.00 0.00 58 1006.0
20260505183125 85 289 4.0 7.0 0.00 0.00 0.00 58 1006.0
20260505182621 85 298 1.0 7.0 0.00 0.00 0.00 60 1006.0
20260505182118 87 157 4.0 6.0 0.00 0.00 0.00 57 1006.1
20260505181615 86 310 1.0 3.0 0.00 0.00 0.00 58 1006.1
20260505181112 86 111 0.0 3.0 0.00 0.00 0.00 61 1006.0
20260505180608 85 211 2.0 9.0 0.00 0.00 0.00 62 1006.3
20260505180106 86 154 1.0 3.0 0.00 0.00 0.00 59 1006.2
20260505175601 86 288 3.0 8.0 0.00 0.00 0.00 61 1006.2
20260505175058 85 160 2.0 6.0 0.00 0.00 0.00 61 1006.4
20260505174555 84 228 2.0 7.0 0.00 0.00 0.00 61 1006.5
20260505174050 84 198 1.0 6.0 0.00 0.00 0.00 62 1006.2
20260505173548 85 268 4.0 8.0 0.00 0.00 0.00 59 1006.1
20260505173044 83 224 4.0 7.0 0.00 0.00 0.00 61 1006.0
20260505172542 84 109 1.0 9.0 0.00 0.00 0.00 62 1006.1
20260505172039 85 125 1.0 3.0 0.00 0.00 0.00 61 1006.2
20260505171533 84 257 4.0 11.0 0.00 0.00 0.00 59 1006.1
20260505171030 85 285 3.0 8.0 0.00 0.00 0.00 61 1006.0
20260505170527 85 300 1.0 4.0 0.00 0.00 0.00 61 1005.9
20260505170024 84 54 0.0 8.0 0.00 0.00 0.00 65 1006.3
20260505165519 84 285 1.0 2.0 0.00 0.00 0.00 63 1006.2
20260505165015 84 146 1.0 3.0 0.00 0.00 0.00 64 1006.2
20260505164511 84 354 1.0 3.0 0.00 0.00 0.00 64 1006.1
20260505164009 83 292 1.0 7.0 0.00 0.00 0.00 65 1006.3
20260505163507 83 224 2.0 2.0 0.00 0.00 0.00 66 1006.2
20260505163003 82 56 1.0 4.0 0.00 0.00 0.00 66 1006.1
20260505162457 82 132 1.0 4.0 0.00 0.00 0.00 67 1006.2
20260505161954 81 127 1.0 3.0 0.00 0.00 0.00 70 1006.3
20260505161450 80 358 1.0 2.0 0.00 0.00 0.00 70 1006.1
20260505160948 80 76 1.0 6.0 0.00 0.00 0.00 72 1006.1
20260505160446 80 170 2.0 3.0 0.00 0.00 0.00 70 1006.0
20260505152922 77 161 2.0 3.0 0.00 0.00 0.00 76 1005.9
20260505152420 76 109 1.0 7.0 0.00 0.00 0.00 78 1005.8
20260505151920 76 10 2.0 2.0 0.00 0.00 0.00 77 1005.8
20260505151416 75 192 2.0 6.0 0.00 0.00 0.00 78 1005.7
20260505150913 75 144 1.0 3.0 0.00 0.00 0.00 78 1005.8
20260505150411 75 331 4.0 7.0 0.00 0.00 0.00 78 1005.8
20260505140340 73 79 2.0 4.0 0.00 0.00 0.00 82 1005.8
20260505130304 71 71 1.0 4.0 0.00 0.00 0.00 84 1005.2
20260505124754 70 78 1.0 3.0 0.00 0.00 0.00 85 1005.0
20260505124251 70 176 2.0 6.0 0.00 0.00 0.00 85 1004.8
20260505123746 70 185 3.0 7.0 0.00 0.00 0.00 86 1004.8
20260505123243 69 89 3.0 6.0 0.00 0.00 0.00 86 1004.7
20260505122740 69 290 2.0 4.0 0.00 0.00 0.00 86 1004.6
20260505122237 69 91 2.0 6.0 0.00 0.00 0.00 86 1004.5
20260505121734 69 228 2.0 10.0 0.00 0.00 0.00 86 1004.4
20260505121230 69 286 2.0 4.0 0.00 0.00 0.00 86 1004.4
20260505120727 69 300 1.0 6.0 0.00 0.00 0.00 86 1004.4
20260505120223 69 138 3.0 6.0 0.00 0.00 0.00 86 1004.4
20260505115721 69 320 5.0 7.0 0.00 0.00 0.00 86 1004.6
20260505115220 69 191 1.0 3.0 0.00 0.00 0.00 86 1004.4
20260505114717 69 123 2.0 7.0 0.00 0.00 0.00 86 1004.4
20260505114212 69 196 2.0 6.0 0.00 0.00 0.00 86 1004.1
20260505113709 69 110 1.0 7.0 0.00 0.00 0.00 85 1004.4
20260505113206 69 214 2.0 3.0 0.00 0.00 0.00 86 1004.2
20260505112702 69 155 4.0 6.0 0.00 0.00 0.00 85 1004.3
20260505112200 69 250 3.0 6.0 0.00 0.00 0.00 85 1004.0
20260505111659 69 133 1.0 4.0 0.00 0.00 0.00 85 1004.2
20260505111155 69 115 2.0 6.0 0.00 0.00 0.00 85 1004.0
20260505110652 69 233 2.0 6.0 0.00 0.00 0.00 85 1004.1
20260505110149 69 260 2.0 8.0 0.00 0.00 0.00 85 1004.0
20260505102125 70 154 3.0 7.0 0.00 0.00 0.00 84 1004.0
20260505101624 70 85 1.0 3.0 0.00 0.00 0.00 84 1004.1
20260505101120 70 354 1.0 6.0 0.00 0.00 0.00 83 1004.3
20260505100616 70 175 2.0 6.0 0.00 0.00 0.00 83 1004.2
20260505100113 70 179 2.0 8.0 0.00 0.00 0.00 83 1004.2
20260505095609 70 168 5.0 8.0 0.00 0.00 0.00 83 1004.3
20260505095106 70 131 3.0 8.0 0.00 0.00 0.00 83 1004.3
20260505094602 70 155 4.0 9.0 0.00 0.00 0.00 83 1004.4
20260505094058 70 190 3.0 7.0 0.00 0.00 0.00 83 1004.5
20260505093555 70 52 1.0 7.0 0.00 0.00 0.00 82 1004.4
20260505093052 70 129 2.0 8.0 0.00 0.00 0.00 82 1004.3
20260505092549 70 153 4.0 8.0 0.00 0.00 0.00 82 1004.1
20260505092048 70 162 7.0 14.0 0.00 0.00 0.00 81 1004.4
20260505091544 71 154 2.0 9.0 0.00 0.00 0.00 81 1004.5
20260505091043 71 182 3.0 8.0 0.00 0.00 0.00 81 1004.4
20260505090540 71 145 4.0 13.0 0.00 0.00 0.00 80 1004.4
20260505090038 71 339 4.0 8.0 0.00 0.00 0.00 80 1004.6
20260505085536 71 206 2.0 8.0 0.00 0.00 0.00 80 1004.6
20260505085034 71 181 4.0 6.0 0.00 0.00 0.00 80 1004.8
20260505084531 71 156 1.0 8.0 0.00 0.00 0.00 79 1004.9
20260505084029 71 162 2.0 4.0 0.00 0.00 0.00 80 1004.9
20260505083526 71 176 8.0 9.0 0.00 0.00 0.00 79 1004.8
20260505083023 71 273 2.0 8.0 0.00 0.00 0.00 79 1004.9
20260505082518 71 172 5.0 8.0 0.00 0.00 0.00 79 1004.9
20260505082015 71 153 2.0 8.0 0.00 0.00 0.00 79 1004.9
20260505081512 71 177 1.0 9.0 0.00 0.00 0.00 79 1005.0
20260505081009 71 103 3.0 10.0 0.00 0.00 0.00 79 1005.1
20260505080505 71 168 3.0 8.0 0.00 0.00 0.00 79 1004.9
20260505080001 71 146 2.0 6.0 0.00 0.00 0.00 79 1004.7
20260505075458 71 129 5.0 10.0 0.00 0.00 0.00 78 1005.0
20260505074955 72 104 2.0 6.0 0.00 0.00 0.00 78 1004.9
20260505074453 72 157 2.0 8.0 0.00 0.00 0.00 77 1004.8
20260505073949 72 158 2.0 7.0 0.00 0.00 0.00 77 1004.9
20260505073447 73 148 4.0 7.0 0.00 0.00 0.00 76 1004.9
20260505072944 73 182 4.0 13.0 0.00 0.00 0.00 75 1005.3
20260505072440 73 157 2.0 6.0 0.00 0.00 0.00 76 1005.3
20260505071936 73 226 3.0 8.0 0.00 0.00 0.00 75 1005.3
20260505071432 73 223 7.0 14.0 0.00 0.00 0.00 75 1005.3
20260505070931 73 149 2.0 8.0 0.00 0.00 0.00 75 1005.7
20260505070427 73 162 3.0 10.0 0.00 0.00 0.00 74 1005.5
20260505065922 73 173 4.0 10.0 0.00 0.00 0.00 74 1005.9
20260505065419 73 192 4.0 9.0 0.00 0.00 0.00 74 1005.7